Weather Roundup
Issued by NWS

Home | Current Version | Previous Version | Graphics & Text | Print | Product List | Glossary Off
Versions: 1 2 3 4 5 6 7 8 9 10 11 12 13 14 15 16 17 18 19 20 21 22 23 24 25 26 27 28 29 30 31 32 33 34 35 36 37 38 39 40 41 42 43 44 45 46 47 48 49 50

976
NZUS93 KARX 222310
HRRWXR

CURRENT HOURLY OBSERVATIONS ACROSS
MUCH OF THE UPPER MISSISSIPPI VALLEY
NATIONAL WEATHER SERVICE LA CROSSE WI
600 PM CDT SAT APR 22 2017


...SOUTHEAST MINNESOTA...


CITY           SKY/WX    TMP DP  RH WIND       PRES   REMARKS
ROCHESTER      SUNNY     64  31  28 VRB7      30.16S
ROCHESTER/MAYO FAIR      65  33  29 CALM      30.16S
WINONA         SUNNY     66  32  28 W6        30.15S
AUSTIN         SUNNY     64  34  32 W8        30.16S
ALBERT LEA     SUNNY     64  27  24 NW6       30.16S
DODGE CENTER   SUNNY     64  34  32 NW9       30.16S
PRESTON        SUNNY     63  31  30 NW5       30.17S
OWATONNA       SUNNY     66  30  26 CALM      30.15F
FARIBAULT      SUNNY     66  34  30 W6        30.15S
$$

...ELSEWHERE IN MINNESOTA...


CITY           SKY/WX    TMP DP  RH WIND       PRES   REMARKS
MINNEAPOLIS    MOSUNNY   68  33  27 NW13      30.13S
INTNL FALLS    CLOUDY    42  37  82 NW10      30.13R
DULUTH         MOSUNNY   64  37  36 W16       30.04S
RED WING       SUNNY     70  28  21 W9        30.12F
REDWOOD FALLS  SUNNY     68  34  28 W7        30.14S
MANKATO        SUNNY     67  34  29 W8        30.15F
WORTHINGTON    SUNNY     65  36  34 W10       30.18F
FAIRMONT       SUNNY     67  35  30 N8        30.17S
$$

...SOUTHWEST WISCONSIN...


CITY           SKY/WX    TMP DP  RH WIND       PRES   REMARKS
LA CROSSE      SUNNY     68  21  16 N5        30.14S
PRAIRIE DU CHI SUNNY     65  16  15 W5        30.15S
BOSCOBEL       SUNNY     67  24  19 VRB3      30.15S
LONE ROCK      SUNNY     64  24  21 SW5       30.15S
PLATTEVILLE    SUNNY     63  28  26 NW6       30.17S
FORT MC COY    SUNNY     65  26  22 SW5       30.15S
CAMP DOUGLAS   SUNNY     66  27  23 W6        30.13F
MAUSTON-NEW LI CLEAR     65  30  27 NW6       30.13F
VIROQUA        FAIR      64  23  21 CALM      30.16S
WIS DELLS      SUNNY     63  28  26 SW3       30.14S
$$

...ELSEWHERE IN WISCONSIN...


CITY           SKY/WX    TMP DP  RH WIND       PRES   REMARKS
MILWAUKEE      MOSUNNY   56  22  26 E6        30.17S
MADISON        MOSUNNY   63  25  23 CALM      30.15S
GREEN BAY      SUNNY     63  35  35 S8        30.12F
EAU CLAIRE     SUNNY     66  30  26 W10       30.12F
BLACK RVR FLS  FAIR      67  22  17 NW7       30.13F
MEDFORD        SUNNY     61  32  33 SW12      30.12S
WAUSAU         SUNNY     62  29  28 W13       30.11S
WIS RAPIDS     SUNNY     66  24  20 NW7       30.14S
MARSHFIELD     SUNNY     63  28  26 SW9       30.12S
RICE LAKE      SUNNY     66  32  27 SW6       30.12F
$$

...NORTHEAST IOWA...


CITY           SKY/WX    TMP DP  RH WIND       PRES   REMARKS
WATERLOO       SUNNY     66  29  24 N7        30.16S
DUBUQUE        SUNNY     62  30  29 NE9       30.16F
DECORAH        SUNNY     63  27  25 N6        30.15S
MASON CITY     SUNNY     65  28  24 CALM      30.18S
CHARLES CITY   SUNNY     64  28  25 N7        30.17S
OELWEIN        SUNNY     64  30  27 NE9       30.17S
$$

...ELSEWHERE IN IOWA...


CITY           SKY/WX    TMP DP  RH WIND       PRES   REMARKS
DES MOINES     MOSUNNY   67  24  19 NE14      30.16S
IOWA CITY      SUNNY     65  32  29 NE13G18   30.16S
FORT DODGE     SUNNY     66  32  28 N5        30.18S
MARSHALLTOWN   SUNNY     65  27  23 NE9       30.16S
CEDAR RAPIDS   SUNNY     64  28  25 N13G20    30.15S
$$

...NORTHERN ILLINOIS...


CITY           SKY/WX    TMP DP  RH WIND       PRES   REMARKS
CHICAGO-OHARE  MOSUNNY   58  20  22 N13       30.16S
CHICAGO-MIDWAY MOSUNNY   57  23  26 N14       30.15F
MOLINE         SUNNY     64  29  26 NE12      30.14R
ROCKFORD       MOSUNNY   63  27  25 E7        30.17R
PEORIA         SUNNY     63  27  25 NE9       30.11R
$$

NOTE: "FAIR" INDICATES FEW OR NO CLOUDS BELOW 12,000 FEET WITH NO
SIGNIFICANT WEATHER AND/OR OBSTRUCTIONS TO VISIBILITY. WIND
SPEEDS ARE IN MILES-PER-HOUR.




USA.gov is the U.S. government's official web portal to all federal, state and local government web resources and services.